MST,Max TemperatureF,Mean TemperatureF,Min TemperatureF,Max Dew PointF,MeanDew PointF,Min DewpointF,Max Humidity, Mean Humidity, Min Humidity, Max Sea Level PressureIn, Mean Sea Level PressureIn, Min Sea Level PressureIn, Max VisibilityMiles, Mean VisibilityMiles, Min VisibilityMiles, Max Wind SpeedMPH, Mean Wind SpeedMPH, Max Gust SpeedMPH,PrecipitationIn, CloudCover, Events, WindDirDegrees
2013-1-1,14,1,-13,5,-4,-15,100,83,66,30.47,30.25,29.93,10,8,0,10,4,13,T,4,Fog,46
2013-1-2,17,8,-2,7,2,-9,76,68,59,30.45,30.33,30.25,10,10,10,23,12,26,0.00,6,,302
2013-1-3,17,4,-9,2,-6,-13,87,70,53,30.63,30.53,30.44,10,10,10,13,6,13,0.00,0,,106
2013-1-4,16,2,-13,3,-7,-17,87,74,61,30.61,30.48,30.37,10,10,9,9,2,10,0.00,0,,239
2013-1-5,14,1,-12,3,-6,-16,83,71,58,30.64,30.52,30.39,10,10,10,14,4,16,0.00,0,,178
2013-1-6,39,19,-1,13,1,-10,72,50,27,30.51,30.25,29.99,10,10,10,24,12,29,0.00,0,,201
2013-1-7,34,22,10,18,7,-2,61,49,37,30.09,29.98,29.82,10,10,10,36,15,39,0.00,1,,208
2013-1-8,32,27,22,21,18,13,74,66,58,30.28,30.02,29.82,10,10,8,35,18,40,0.00,1,,244
2013-1-9,41,30,18,24,16,6,74,61,48,30.35,30.22,30.01,10,10,10,16,11,18,0.00,0,,184
2013-1-10,46,31,15,18,11,5,63,44,24,29.93,29.68,29.39,10,10,10,23,9,35,0.00,0,,182
2013-1-11,30,15,-1,21,11,-4,86,71,55,29.89,29.43,29.29,10,6,0,32,12,37,T,7,Fog-Snow,281
2013-1-12,1,-6,-14,-6,-8,-15,90,81,72,30.19,30.06,29.78,10,9,3,14,4,17,T,3,Snow,18
2013-1-13,0,-9,-18,-6,-9,-23,95,84,72,30.38,30.12,29.83,10,8,2,12,4,14,T,5,Snow,14
2013-1-14,0,-11,-23,-9,-16,-25,92,78,64,30.47,30.36,30.28,10,10,3,18,5,21,0.00,0,,149
2013-1-15,18,3,-12,12,2,-19,80,69,57,30.37,30.30,30.01,10,10,10,14,6,17,0.00,7,,92
2013-1-16,26,15,4,16,9,3,91,77,63,30.56,30.42,30.14,10,10,10,14,8,17,0.00,1,,57
2013-1-17,27,13,-1,13,6,-1,95,74,52,30.70,30.55,30.34,10,10,10,23,6,29,0.00,0,,177
2013-1-18,38,27,16,19,11,5,56,50,43,30.35,30.21,30.10,10,10,10,40,21,51,0.00,0,,245
2013-1-19,39,26,12,16,9,3,55,46,36,30.33,30.23,30.13,10,10,10,29,15,32,0.00,0,,232
2013-1-20,34,24,13,18,10,5,74,56,38,30.32,30.24,30.14,10,10,10,26,9,32,0.00,0,,70
2013-1-21,38,23,7,18,11,3,67,52,36,30.27,30.19,30.06,10,10,10,33,15,40,0.00,0,,242
2013-1-22,43,32,21,17,8,-2,50,36,22,30.27,30.13,30.03,10,10,10,29,16,37,0.00,0,,264
2013-1-23,49,38,26,17,9,-6,37,27,17,30.23,30.12,30.02,10,10,10,32,18,39,0.00,0,,233
2013-1-24,47,37,26,28,19,8,70,49,27,30.14,30.02,29.92,10,10,10,36,21,44,0.00,2,,250
2013-1-25,46,38,29,27,25,23,78,60,42,30.13,30.08,29.95,10,10,10,23,15,26,0.00,0,,234
2013-1-26,45,37,29,28,26,24,75,60,45,30.00,29.84,29.66,10,10,10,28,11,33,0.00,3,,217
2013-1-27,47,38,28,31,25,21,100,70,40,29.76,29.68,29.60,10,10,9,28,13,33,0.00,4,,210
2013-1-28,33,23,12,24,18,5,92,77,61,29.77,29.65,29.57,10,6,0,29,12,32,T,6,Fog-Snow,341
2013-1-29,20,11,2,6,2,-5,88,67,45,30.06,29.85,29.64,10,10,2,25,13,31,T,3,Snow,312
2013-1-30,30,17,3,18,9,-4,91,72,53,30.00,29.93,29.88,10,10,10,33,18,44,0.00,7,,287
2013-1-31,35,28,20,18,16,14,77,62,47,30.17,30.04,29.90,10,10,10,39,21,46,T,3,,270